Starlink 32099

operational
NORAD ID: 59697 Int'l Des: 2024-086 Owner: SPXS Country: US Constellation: starlink
LEOCIRCULAR

关于 Starlink 32099

正在加载描述...

实时位置

正在加载3D地球...

即将过境

高度历史

Altitude vs Time

uPlot chart will show altitude changes over time

两行轨道根数

1 59697U 24086R 26034.61655194 .00000595 00000-0 31156-4 0 9997
2 59697 43.0005 252.1069 0000872 265.5736 94.5016 15.27571358 98901
Epoch: Feb 3, 2026 • Age: 17 hours

当前状态

高度 482.6 km
速度 7.63 km/s
星下点 18.86°N, 12.14°E
发射日期 May 8, 2024
运行时间 1.7 years
类型 internet

技术详情

分类 Payload
质量 730.00 kg
干质量 700.00 kg
总质量 730.00 kg
长度 0.30 m
直径 4.10 m
跨度 29.00 m
形状 Box + pan
制造商 SPXS
平台类型 Starlink V2M
阶段状态 In Orbit
所有者/国家 SPXS/US

大型星座

Loading constellations...